DW9022 Weather Reports


time (UTC)temp
C
wind
direction
speed
KPH
gust
KPH
rain 1hr
cm
rain 24hr
cm
rain mn
cm
humidity
%
barometer
mb
20260505174527 11 265 0.0 3.2 0.00 0.94 0.13 71 1012.1
20260505173054 11 79 1.6 14.5 0.00 0.94 0.13 66 1011.7
20260505171535 11 310 1.6 11.3 0.00 0.94 0.13 66 1011.5
20260505170000 11 7 0.0 4.8 0.00 0.94 0.13 67 1011.6
20260505164552 11 350 4.8 11.3 0.00 0.94 0.13 66 1011.5
20260505163014 10 360 8.0 12.9 0.00 0.94 0.13 67 1011.4
20260505161629 10 323 4.8 8.0 0.00 0.94 0.13 68 1011.4
20260505153020 10 350 4.8 11.3 0.00 0.94 0.13 67 1010.4
20260505151624 10 350 8.0 14.5 0.00 0.94 0.13 66 1010.0
20260505124528 9 251 0.0 6.4 0.03 0.89 0.03 69 1011.1
20260505123008 9 312 1.6 11.3 0.03 0.89 0.03 69 1011.0
20260505121533 10 305 3.2 9.7 0.03 0.89 0.03 69 1010.7
20260505120016 10 280 1.6 12.9 0.03 0.89 0.03 66 1010.2
20260505114552 10 269 3.2 11.3 0.00 0.86 0.00 63 1009.6
20260505113029 10 11 4.8 12.9 0.00 0.86 0.00 67 1009.2
20260505111609 10 281 3.2 8.0 0.00 0.86 0.00 69 1008.8
20260505101518 10 231 0.0 4.8 0.00 0.86 0.00 72 1008.5
20260505100053 10 332 3.2 9.7 0.00 0.86 0.00 74 1008.1
20260505094527 10 333 1.6 9.7 0.00 0.86 0.00 80 1008.0
20260505093002 10 340 1.6 6.4 0.00 0.86 0.00 83 1007.6
20260505091603 11 231 1.6 9.7 0.00 0.86 0.00 84 1007.4
20260505090037 11 1 1.6 12.9 0.00 0.86 0.00 85 1007.2
20260505084506 11 325 0.0 6.4 0.00 0.86 0.00 85 1007.2
20260505083051 12 345 0.0 3.2 0.00 0.86 0.00 85 1006.7
20260505081525 12 340 0.0 4.8 0.00 0.86 0.00 84 1006.6
20260505080107 13 4 0.0 3.2 0.00 0.86 0.00 85 1006.7
20260505074520 13 160 0.0 0.0 0.00 0.86 0.00 85 1006.9
20260505073112 13 160 0.0 3.2 0.00 0.86 0.00 85 1006.8
20260505071534 13 73 0.0 0.0 0.00 0.86 0.00 84 1006.3
20260505070009 13 73 0.0 1.6 0.00 0.86 0.00 84 1005.8
20260505064552 14 73 0.0 0.0 0.00 0.86 0.00 84 1005.8
20260505063029 14 73 0.0 0.0 0.00 0.86 0.00 84 1005.9
20260505061555 14 73 0.0 0.0 0.00 0.86 0.00 83 1005.4
20260505060028 14 73 0.0 0.0 0.00 0.86 0.00 83 1005.0
20260505054629 14 73 0.0 3.2 0.03 0.86 0.00 82 1004.7
20260505053020 15 163 0.0 1.6 0.76 0.86 0.00 81 1004.7
20260505051604 15 163 0.0 3.2 0.81 0.86 0.00 80 1004.3
20260505041556 19 231 1.6 8.0 0.00 0.05 0.05 67 1003.0
20260505040021 19 217 1.6 6.4 0.00 0.05 0.05 67 1002.1
20260505034505 19 219 1.6 6.4 0.00 0.05 0.05 68 1001.8
20260505033054 19 223 1.6 3.2 0.00 0.05 0.05 67 1001.6
20260505031612 19 223 1.6 3.2 0.00 0.05 0.05 67 1001.7
20260505030028 19 225 0.0 4.8 0.00 0.05 0.05 66 1002.0
20260505024519 20 210 1.6 3.2 0.00 0.05 0.05 64 1002.0
20260505023106 20 210 0.0 3.2 0.00 0.05 0.05 63 1001.9
20260505021526 20 216 1.6 4.8 0.00 0.05 0.05 62 1001.8
20260505020042 20 210 0.0 4.8 0.00 0.05 0.05 60 1001.7
20260505014516 20 215 0.0 4.8 0.00 0.05 0.05 60 1001.7
20260505013106 21 211 0.0 3.2 0.00 0.05 0.05 59 1001.4
20260505011534 21 140 0.0 6.4 0.00 0.05 0.05 57 1001.3
20260505004543 22 214 1.6 9.7 0.00 0.05 0.05 52 1001.2
20260505003110 22 242 0.0 4.8 0.00 0.05 0.05 52 1001.2
20260505001537 22 184 1.6 6.4 0.00 0.05 0.05 51 1001.2
20260505000024 23 203 1.6 11.3 0.00 0.05 0.05 52 1001.1
20260504234548 23 319 1.6 6.4 0.00 0.05 0.05 52 1001.1
20260504233016 23 240 1.6 6.4 0.00 0.05 0.05 51 1001.4
20260504231603 23 209 1.6 6.4 0.00 0.05 0.05 50 1001.8
20260504230025 23 211 3.2 6.4 0.00 0.05 0.05 50 1002.2
20260504224603 23 217 1.6 9.7 0.00 0.05 0.05 50 1002.3
20260504223019 23 196 4.8 11.3 0.00 0.05 0.05 48 1002.6
20260504221549 23 214 3.2 11.3 0.00 0.05 0.05 50 1002.6
20260504220012 23 300 4.8 11.3 0.00 0.05 0.05 48 1002.6
20260504214558 24 232 4.8 12.9 0.00 0.05 0.05 48 1002.7
20260504213013 24 241 6.4 19.3 0.00 0.05 0.05 48 1002.6
20260504211614 24 239 4.8 16.1 0.00 0.05 0.05 46 1002.8
20260504210033 24 229 4.8 19.3 0.00 0.05 0.05 47 1002.9
20260504204514 25 152 6.4 16.1 0.00 0.05 0.05 45 1003.0
20260504203101 25 208 4.8 16.1 0.00 0.05 0.05 45 1003.2
20260504201508 25 203 8.0 12.9 0.00 0.05 0.05 44 1003.5
20260504200057 25 226 4.8 17.7 0.00 0.05 0.05 43 1003.5
20260504194510 25 211 8.0 17.7 0.00 0.05 0.05 41 1003.3
20260504193049 25 195 8.0 20.9 0.00 0.05 0.05 42 1003.5
20260504191518 25 240 12.9 22.5 0.00 0.05 0.05 41 1003.7
20260504184529 25 200 11.3 20.9 0.00 0.05 0.05 41 1003.7
20260504183011 25 235 9.7 24.1 0.00 0.05 0.05 41 1003.8
20260504181557 25 235 8.0 19.3 0.00 0.05 0.05 42 1004.1